DW9837 Weather Reports


Display with metric or nautical units.
time (UTC)temp
F
wind
direction
speed
MPH
gust
MPH
rain 1hr
in
rain 24hr
in
rain mn
in
humidity
%
barometer
mb
20260509113034 51 78 0.0 2.0 0.00 0.01 0.01 88 1013.8
20260509111532 50 16 0.0 3.0 0.00 0.01 0.01 89 1013.8
20260509110035 50 100 0.0 2.0 0.00 0.01 0.01 90 1013.7
20260509104533 49 281 0.0 3.0 0.00 0.01 0.01 90 1013.9
20260509103031 49 125 0.0 3.0 0.00 0.01 0.01 90 1013.7
20260509101539 49 106 0.0 2.0 0.00 0.01 0.01 90 1013.7
20260509100029 49 133 0.0 2.0 0.01 0.01 0.01 89 1013.9
20260509094530 50 54 0.0 1.0 0.01 0.01 0.01 89 1013.8
20260509093028 50 97 0.0 1.0 0.01 0.01 0.01 89 1013.7
20260509091532 50 96 0.0 1.0 0.01 0.01 0.01 87 1013.7
20260509090027 50 192 0.0 1.0 0.00 0.00 0.00 86 1013.7
20260509084530 50 167 1.0 2.0 0.00 0.00 0.00 86 1013.4
20260509083026 50 123 0.0 1.0 0.00 0.00 0.00 87 1013.5
20260509081525 50 152 0.0 3.0 0.00 0.00 0.00 87 1013.5
20260509080023 49 104 0.0 6.0 0.00 0.00 0.00 88 1013.5
20260509074523 49 201 2.0 9.0 0.00 0.00 0.00 88 1013.6
20260509073029 49 194 0.0 2.0 0.00 0.00 0.00 85 1013.4
20260509071518 49 90 0.0 1.0 0.00 0.00 0.00 84 1013.4
20260509070017 49 90 0.0 1.0 0.00 0.00 0.00 84 1013.3
20260509064516 49 90 0.0 1.0 0.00 0.00 0.00 84 1013.4
20260509063019 49 90 0.0 1.0 0.00 0.00 0.00 84 1013.5
20260509061513 49 90 0.0 0.0 0.00 0.00 0.00 84 1013.8
20260509060022 49 90 0.0 1.0 0.00 0.00 0.00 84 1013.7
20260509054509 49 90 0.0 1.0 0.00 0.00 0.00 84 1013.7
20260509053012 49 90 0.0 0.0 0.00 0.00 0.00 83 1014.0
20260509051508 50 262 0.0 0.0 0.00 0.00 0.00 83 1013.9
20260509050006 50 262 0.0 0.0 0.00 0.00 0.00 83 1013.8
20260509044504 50 262 0.0 0.0 0.00 0.00 0.00 84 1014.1
20260509043003 50 262 0.0 1.0 0.00 0.00 0.00 83 1014.1
20260509041502 50 262 0.0 0.0 0.00 0.00 0.00 83 1014.0
20260509040126 50 262 0.0 0.0 0.00 0.00 0.00 82 1014.0
20260509034601 50 262 0.0 1.0 0.00 0.00 0.00 82 1013.9
20260509033056 49 262 0.0 0.0 0.00 0.00 0.00 83 1013.7
20260509031559 49 262 0.0 1.0 0.00 0.00 0.00 83 1013.6
20260509030057 49 262 0.0 1.0 0.00 0.00 0.00 81 1013.3
20260509024556 49 284 0.0 1.0 0.00 0.00 0.00 83 1013.4
20260509023053 48 284 0.0 1.0 0.00 0.00 0.00 83 1013.5
20260509021552 49 284 0.0 1.0 0.00 0.00 0.00 81 1013.4
20260509020051 49 284 0.0 1.0 0.00 0.00 0.00 81 1013.3
20260509014549 49 284 0.0 1.0 0.00 0.00 0.00 78 1013.1
20260509013050 50 284 0.0 1.0 0.00 0.00 0.00 75 1012.9
20260509011556 51 284 0.0 1.0 0.00 0.00 0.00 73 1012.7
20260509010047 52 284 0.0 1.0 0.00 0.00 0.00 72 1012.3
20260509004553 52 294 0.0 1.0 0.00 0.00 0.00 72 1012.1
20260509003040 52 292 0.0 1.0 0.00 0.00 0.00 71 1011.9
20260509001539 53 283 0.0 3.0 0.00 0.00 0.00 70 1011.8
20260509000037 53 297 2.0 5.0 0.00 0.00 0.00 68 1011.7
20260508234536 54 176 0.0 6.0 0.00 0.00 0.00 64 1011.3
20260508233036 56 316 1.0 5.0 0.00 0.00 0.00 56 1011.1
20260508231537 57 345 0.0 3.0 0.00 0.00 0.00 49 1010.6
20260508230037 58 265 0.0 5.0 0.00 0.00 0.00 53 1010.5
20260508224534 58 83 1.0 6.0 0.00 0.00 0.00 50 1010.5
20260508223041 59 292 0.0 6.0 0.00 0.00 0.00 50 1010.5
20260508221533 59 116 1.0 5.0 0.00 0.00 0.00 48 1010.5
20260508220034 59 300 1.0 4.0 0.00 0.00 0.00 51 1010.5
20260508214538 59 6 2.0 7.0 0.00 0.00 0.00 53 1010.4
20260508213034 59 136 1.0 4.0 0.00 0.00 0.00 53 1010.5
20260508211532 58 329 1.0 5.0 0.00 0.00 0.00 55 1010.5
20260508210029 57 272 2.0 5.0 0.00 0.00 0.00 55 1010.5
20260508204533 55 272 1.0 6.0 0.00 0.00 0.00 62 1010.5
20260508203027 54 304 1.0 11.0 0.00 0.00 0.00 72 1010.7
20260508201526 53 258 5.0 14.0 0.00 0.00 0.00 68 1010.9
20260508200024 58 267 3.0 13.0 0.00 0.00 0.00 49 1010.2
20260508194524 61 265 2.0 8.0 0.00 0.00 0.00 43 1009.9
20260508193022 62 296 4.0 11.0 0.00 0.00 0.00 41 1009.6
20260508191522 60 291 4.0 9.0 0.00 0.00 0.00 43 1009.7
20260508190026 59 276 6.0 13.0 0.00 0.00 0.00 44 1010.0
20260508184520 58 253 4.0 12.0 0.00 0.00 0.00 47 1009.7
20260508183019 60 294 2.0 10.0 0.00 0.00 0.00 47 1009.5
20260508181518 60 273 4.0 12.0 0.00 0.00 0.00 44 1009.9
20260508180020 60 337 3.0 12.0 0.00 0.00 0.00 45 1009.9
20260508174517 60 293 3.0 11.0 0.00 0.00 0.00 46 1009.9
20260508173015 60 232 4.0 12.0 0.00 0.00 0.00 45 1009.8
20260508171515 58 304 5.0 13.0 0.00 0.00 0.00 48 1010.2
20260508170016 57 254 3.0 18.0 0.00 0.00 0.00 53 1010.2
20260508164514 58 274 3.0 11.0 0.00 0.00 0.00 53 1010.2
20260508163011 57 287 6.0 14.0 0.00 0.00 0.00 52 1010.5
20260508161510 58 270 4.0 10.0 0.00 0.00 0.00 49 1010.6
20260508160020 58 324 4.0 10.0 0.00 0.00 0.00 55 1010.6
20260508154510 58 237 3.0 10.0 0.00 0.00 0.00 53 1010.6
20260508153008 58 239 2.0 9.0 0.00 0.00 0.00 55 1010.7
20260508151509 58 334 4.0 11.0 0.00 0.00 0.00 52 1010.7
20260508150006 58 268 4.0 11.0 0.00 0.00 0.00 51 1010.8
20260508144503 59 270 3.0 10.0 0.00 0.00 0.00 45 1010.8
20260508143000 59 234 1.0 6.0 0.00 0.00 0.00 37 1010.7
20260508141610 58 305 2.0 8.0 0.00 0.00 0.00 39 1010.8
20260508140058 58 266 1.0 6.0 0.00 0.00 0.00 40 1010.8
20260508134556 57 121 3.0 8.0 0.00 0.00 0.00 41 1010.8
20260508133059 57 261 2.0 10.0 0.00 0.00 0.00 42 1011.0
20260508131554 57 7 2.0 4.0 0.00 0.00 0.00 42 1011.2
20260508130056 56 265 2.0 6.0 0.00 0.00 0.00 44 1011.3
20260508124550 56 303 1.0 4.0 0.00 0.00 0.00 45 1011.3
20260508123046 55 7 0.0 6.0 0.00 0.00 0.00 46 1011.1
20260508121559 54 21 0.0 3.0 0.00 0.00 0.00 47 1011.1
20260508120040 53 340 1.0 5.0 0.00 0.00 0.00 49 1011.1
20260508114537 51 40 0.0 2.0 0.00 0.02 0.00 54 1011.1